{"data":{"norad_id":47728,"epoch":"2026-09-20T04:00:03.000096Z","epoch_age_seconds":54478,"freshness":"FRESH","line1":"1 47728U 21017G   26263.16670139  .00146072  00000+0  50343-3 0  9998","line2":"2 47728  53.0621 341.3393 0008470 347.5054 341.1716 15.88613581  5891","mean_motion":15.88613581,"eccentricity":0.000847,"inclination_deg":53.0621,"raan_deg":341.3393,"arg_perigee_deg":347.5054,"mean_anomaly_deg":341.1716,"bstar":0.00050343,"rev_number":589,"period_min":90.64507676521,"perigee_km":300.50745642549,"apogee_km":311.83067089733,"semimajor_km":6684.3060636614,"source":"CELESTRAK","updated_at":"2026-09-20T09:00:38.599818Z"}}